Location: Les Chemineaux
(47.3024°N, 1.5104°E)
Time: 22:18:23
(UTC+00:00)

IRS-1C Rocket - Pass Details

Date: 19 May 2025
Orbit: 798 x 805 km, 98.8° (Epoch: 12 June)

Event Time Altitude Azimuth Distance (km) Brightness Sun altitude
Exits shadow 21:15:28 17° 171° (S) 1,940 5.6 -14.2°
Maximum altitude 21:19:36 76° 256° (WSW) 832 4.2 -14.7°
Drops below altitude 10° 21:24:53 10° 343° (NNW) 2,390 7.8 -15.2°
Sets 21:27:14 0° 345° (NNW) 3,324 8.7 -15.4°
